STARLINK-1557, 46034

Orbit data source: Space-Track

STARLINK-1557, 46034 is a payload satellite owned by SpaceX/Seattle (US) in LEO that was launched on Fri, 07 Aug 2020 UTC via an FALCON 9 launch vehicle from the Air Force Eastern Test Range (AFETR). Payload-class satellites include a variety of spacecraft equipped with specific instruments for various scientific and technological missions. These include communications satellites like Starlink; space stations such as the ISS; scientific satellites like the Hubble; Earth observation satellites from companies like Planet Labs, Umbra, and HawkEye 360; GPS; miniature CubeSats for education and research; and military/defense satellites.

Loading next visibility...
Identifier
46034, 2020-055H
Orbit
LEO
Country
Flag of USUS
Related business
Manufacturer
SpaceX/Seattle
Mission
Operational Commercial Communications
Bus & Motor
STARLINK, Unknown motor
Mass
260 kg wet, ~248 kg dry
Launch date (UTC)
2020-08-07 (6 years ago)
Launch vehicle
FALCON 9
Launch site
Air Force Eastern Test Range (AFETR)
Object type
Payload
Rocket body
Debris
Shape & HBR
Box + 1 Pan, 10.1 m
Radar Cross Section
13.562 m², Large (>1 m²)

Expand to show TLE details & history
Last TLE update: 4 hours ago

TLE from 4 hours ago
0 STARLINK-1557
1 46034U 20055H   26123.33334491  .00022837  00000-0  78121-3 0  9997
2 46034  53.1589 232.8934 0001412  95.2453 168.3251 15.30183103  5812
Epoch: 2026-05-03T08:00Z
TLE epoch observation values (Epoch: 2026-05-03T08:00:01.000Z)
Latitude
-52.83589°
Longitude
151.03638°
Altitude
494.574 km
Speed
7.617 km/s
True Right ascension
08h 49m 06s
True Declination
-52° 39' 50"
Sunlit
Object was in daylight at epoch
Visualization orbit readout
Latitude
Unknown
Longitude
Unknown
Altitude
Unknown
Speed
Unknown
Apparent Right ascension
Unknown
Apparent Declination
Unknown
Sunlit
N/A
Visualization observer readout
Local Sidereal Time
19:42:04
Azimuth
Unknown
Elevation
Unknown
Doppler factor
Unknown
Orbital elements
Apogee altitude
476.49 km
Perigee altitude
474.554 km
Semi-major axis
6,853.659 km
Eccentricity
0.00014
Inclination
53.1589°
RAAN
232.8934°
Arg. of periapsis
95.2453°
True anomaly
168.32837°
Mean anomaly
168.3251°
Eccentric anomaly
168.32674°
Mean motion
3.82525 °/min
Orbital period
94.11 mins
BSTAR
0.00078121
Loading maneuver chart data...
Computing Atmospheric mass density...

Documentation

Showing up to 5 results
|